Regional Weather Roundup
Issued by NWS

Home | Current Version | Previous Version | Graphics & Text | Print | Product List | Glossary On
Versions: 1 2 3 4 5 6 7 8 9 10 11 12 13 14 15 16 17 18 19 20 21 22 23 24 25 26 27 28 29 30 31 32 33 34 35 36 37 38 39 40 41 42 43 44 45 46 47 48 49 50
000
ASUS43 KOAX 170302
RWRNE

WEATHER ROUNDUP FOR NEBRASKA
NATIONAL WEATHER SERVICE OMAHA NE
900 PM CST TUE JAN 16 2018

NOTES: SATELLITE DATA IS BEING USED TO AUGMENT CLOUD COVER ABOVE
       12000 FEET.
       "FAIR" INDICATES FEW OR NO CLOUDS BELOW 12,000 FEET WITH NO
       SIGNIFICANT WEATHER AND/OR OBSTRUCTIONS TO VISIBILITY.


NEZ001>004-019>022-054>056-170400-
NEBRASKA PANHANDLE

CITY           SKY/WX    TMP DP  RH WIND       PRES   REMARKS
SCOTTSBLUFF    CLEAR      7   2  80 E5        30.28F WCI  -2
ALLIANCE       CLEAR     10   3  73 S10       30.28F WCI  -4
CHADRON        CLEAR     12   4  70 CALM      30.28F
GORDON         FAIR      14   4  63 W5        30.28F WCI   7
KIMBALL        CLEAR     17   3  54 S8        30.27F WCI   6
SIDNEY         CLEAR     12   2  64 SW10      30.31F WCI  -1
$$

NEZ057>060-069>072-079>082-170400-
SOUTHWEST NEBRASKA

CITY           SKY/WX    TMP DP  RH WIND       PRES   REMARKS
NORTH PLATTE   CLEAR     11  -1  58 S8        30.45F WCI  -1
IMPERIAL       CLEAR      7  -1  70 S8        30.40F WCI  -6
LEXINGTON      CLEAR      9   1  71 S7        30.51F WCI  -3
MCCOOK         CLEAR      7   0  73 S6        30.49F WCI  -3
OGALLALA       CLEAR     15   3  58 SW8       30.39F WCI   5
$$

NEZ005>010-023>029-035>040-094-170400-
NORTH CENTRAL NEBRASKA

CITY           SKY/WX    TMP DP  RH WIND       PRES   REMARKS
VALENTINE      CLEAR     11   0  61 SW5       30.37F WCI   3
AINSWORTH      CLEAR     11   2  68 SW14      30.39F WCI  -5
BROKEN BOW     CLEAR      2  -5  72 S5        30.47F WCI  -8
O`NEILL        CLEAR      6   0  76 S8        30.50S WCI  -7
ORD            CLEAR      4  -2  76 CALM      30.52F
$$

NEZ041-046>049-061>064-073>077-083>087-170400-
SOUTH CENTRAL NEBRASKA

CITY           SKY/WX    TMP DP  RH WIND       PRES   REMARKS
GRAND ISLAND   CLOUDY     3   0  87 S7        30.58F WCI  -9
AURORA         CLOUDY     5   0  78 S5        30.59F WCI  -4
HASTINGS       CLOUDY     6  -1  73 S6        30.58F WCI  -4
HEBRON         CLOUDY    -1  -4  85 CALM      30.66F
HOLDREGE       CLOUDY     8   1  75 S6        30.54F WCI  -3
KEARNEY        CLOUDY     1  -3  83 S7        30.56F WCI -12
YORK           CLOUDY     5   1  85 S6        30.61F WCI  -6
$$

NEZ011>018-030>034-042>045-170400-
NORTHEAST NEBRASKA

CITY           SKY/WX    TMP DP  RH WIND       PRES   REMARKS
NORFOLK        CLOUDY     5   0  79 S8        30.56F WCI  -8
ALBION         CLOUDY     4  -1  79 CALM      30.56F
BLAIR          CLOUDY     3  -1  84 CALM      30.64S
COLUMBUS       CLOUDY     3  -3  76 S5        30.63F WCI  -6
FREMONT        CLOUDY     5   1  84 CALM      30.65S
TEKAMAH        CLOUDY    -2  -8  76 SW3       30.67F
WAYNE          CLOUDY    -3  -7  82 S5        30.59F WCI -14
$$

NEZ050>053-065>068-078-088>093-170400-
SOUTHEAST NEBRASKA

CITY           SKY/WX    TMP DP  RH WIND       PRES   REMARKS
LINCOLN        CLOUDY     5  -1  76 CALM      30.68F
OMAHA EPPLEY   CLOUDY     4   0  83 SE3       30.68F
BEATRICE       CLOUDY     4   1  84 CALM      30.67F
FALLS CITY     CLOUDY     3  -2  79 SW5       30.70F WCI  -6
NEBRASKA CITY  CLOUDY     5   2  89 SW3       30.67F
PLATTSMOUTH    CLOUDY     5   2  85 CALM      30.66F
$$

NEZ044-045-051>053-067-170400-
OMAHA AREA

CITY           SKY/WX    TMP DP  RH WIND       PRES   REMARKS
OMAHA EPPLEY   CLOUDY     4   0  83 SE3       30.68F
BLAIR          CLOUDY     3  -1  84 CALM      30.64S
FREMONT        CLOUDY     5   1  84 CALM      30.65S
MILLARD        CLOUDY     6   3  86 CALM      30.67F
OFFUTT AFB     CLEAR     -2  -6  83 S3        30.67F
PLATTSMOUTH    CLOUDY     5   2  85 CALM      30.66F
WAHOO          FAIR       5   0  80 CALM      30.65F
$$



USA.gov is the U.S. government's official web portal to all federal, state and local government web resources and services.